Location: Austin
(30.3000°N, 97.7500°W)
Time: 02:01:35
(UTC-06:00)

Nadezhda 4 Rocket - Pass Details

Date: 20 November 2023
Orbit: 948 x 993 km, 82.9° (Epoch: 04 December)

Event Time Altitude Azimuth Distance (km) Brightness Sun altitude
Rises 19:52:33 0° 193° (SSW) 3,669 7.2 -30.1°
Reaches altitude 10° 19:55:06 10° 196° (SSW) 2,719 6.5 -30.6°
Maximum altitude 20:01:15 63° 277° (W) 1,076 4.3 -31.9°
Enters shadow 20:03:05 44° 336° (NNW) 1,309 4.7 -32.3°
